Location: Lawrence
(38.9720°N, 95.2350°W)
Time: 03:36:35
(UTC-05:00)

ISS - Visible Passes

Search period start: 24 September 2017 00:00
Search period end: 04 October 2017 00:00
Orbit: 401 x 407 km, 51.6° (Epoch: 24 September)

Date Brightness Start Highest point End Pass type
(mag) Time Alt. Az. Time Alt. Az. Time Alt. Az.
24 Sep -1.8 19:43:42 10° SSE 19:45:17 13° SE 19:46:53 10° E visible
24 Sep -1.8 21:18:10 10° WSW 21:19:46 26° WSW 21:19:46 26° WSW visible
25 Sep -3.9 20:25:51 10° SW 20:29:05 68° SE 20:30:18 34° ENE visible
26 Sep -2.9 19:33:54 10° SSW 19:36:50 32° SE 19:39:48 10° ENE visible
26 Sep -1.9 21:10:27 10° W 21:13:17 28° NNW 21:13:17 28° NNW visible
27 Sep -2.9 20:17:42 10° WSW 20:20:52 47° NW 20:23:25 15° NE visible
28 Sep -1.3 21:03:07 10° WNW 21:05:20 17° NNW 21:06:03 16° N visible
29 Sep -1.7 20:10:01 10° W 20:12:45 24° NNW 20:15:30 10° NNE visible
30 Sep -1.0 20:56:10 10° NW 20:57:26 12° NNW 20:58:17 11° N visible
01 Oct -1.1 20:02:44 10° WNW 20:04:44 15° NNW 20:06:44 10° NNE visible
03 Oct -1.0 19:55:50 10° NNW 19:56:46 11° NNW 19:57:42 10° N visible
